User: anonymous   Login
Location: Unspecified
(0.0000°N, 0.0000°E)
Time: 17:32:01
(UTC+01:00)
Language:

Orbus 21S - Orbit

View from above orbital plane
View from above orbital plane
View from above satellite
View from above satellite

Ground track
Ground track

The orbit data is extracted from the following two-line orbital elements,

1 20669U 90056C   15060.34774882  .00002320  00000-0  98805-3 0  9998
2 20669 024.2132 076.2958 7136254 141.5745 358.6086 02.45070061206684
Epoch (UTC): 01 March 2015 08:20:45
Eccentricity: 0.7136254
inclination: 24.2132°
perigee height: 277 km
apogee height: 33443 km
right ascension of ascending node: 76.2958°
argument of perigee: 141.5745°
revolutions per day: 2.45070061
mean anomaly at epoch: 358.6086°
orbit number at epoch: 20668

The dashed part of the orbit path shows where the satellite is in the earth's shadow,  

DLR